EJU42HZ LEPA-LFBD

Flight info

Callsign EJU42HZ
Flight time 1h 7m
Altitude 34000
Route DRAGO DCT PAPOS DCT UMURE N863 GIROM DCT AGN DCT SECHE R17 MIRBA
Aircraft A319/M-SDE2E3FGIJ1RWXYZ/LB1

Departure

Time 2026-05-01 08:32
Airport Palma de Mallorca Airport (LEPA)

Arrival

Time 2026-05-01 09:39
Airport Bordeaux–Mérignac Airport (LFBD)
Time Latitude Longitude Altitude Speed Heading
2026-05-01 08:27 39.54645 2.73820 30 ft 15 kts 238°
2026-05-01 08:28 39.54588 2.73701 30 ft 16 kts 240°
2026-05-01 08:28 39.54522 2.73562 30 ft 24 kts 238°
2026-05-01 08:28 39.54413 2.73331 30 ft 35 kts 238°
2026-05-01 08:28 39.54319 2.73173 30 ft 14 kts 181°
2026-05-01 08:29 39.54282 2.73267 30 ft 13 kts 94°
2026-05-01 08:29 39.54276 2.73385 30 ft 14 kts 94°
2026-05-01 08:29 39.54285 2.73505 30 ft 12 kts 58°
2026-05-01 08:29 39.54292 2.73520 30 ft 0 kts 58°
2026-05-01 08:31 39.54408 2.73767 30 ft 73 kts 58°
2026-05-01 08:31 39.54803 2.74600 31 ft 140 kts 58°
2026-05-01 08:31 39.55353 2.75761 527 ft 151 kts 58°
2026-05-01 08:32 39.55904 2.76928 1204 ft 153 kts 60°
2026-05-01 08:32 39.56436 2.78149 1828 ft 164 kts 60°
2026-05-01 08:32 39.57046 2.79485 2324 ft 180 kts 59°
2026-05-01 08:32 39.57719 2.80924 2882 ft 193 kts 59°
2026-05-01 08:33 39.58442 2.82490 3361 ft 209 kts 60°
2026-05-01 08:33 39.59188 2.84140 4087 ft 214 kts 60°
2026-05-01 08:33 39.59945 2.85812 4950 ft 216 kts 61°
2026-05-01 08:33 39.60713 2.87504 5731 ft 220 kts 61°
2026-05-01 08:34 39.61530 2.89206 6530 ft 226 kts 52°
2026-05-01 08:34 39.62816 2.90412 7304 ft 234 kts 21°
2026-05-01 08:34 39.64453 2.90586 8041 ft 243 kts 348°
2026-05-01 08:34 39.65950 2.89582 8818 ft 247 kts 314°
2026-05-01 08:35 39.66830 2.87694 9668 ft 246 kts 288°
2026-05-01 08:35 39.67378 2.85592 10544 ft 246 kts 285°
2026-05-01 08:35 39.67830 2.83447 11386 ft 246 kts 282°
2026-05-01 08:35 39.68178 2.81262 12217 ft 248 kts 278°
2026-05-01 08:36 39.68416 2.79045 13069 ft 249 kts 275°
2026-05-01 08:36 39.68546 2.76797 13908 ft 251 kts 275°
2026-05-01 08:36 39.68816 2.74546 14573 ft 257 kts 282°
2026-05-01 08:36 39.69368 2.72239 14844 ft 280 kts 292°
2026-05-01 08:37 39.70189 2.69820 15078 ft 304 kts 294°
2026-05-01 08:37 39.71081 2.67215 15275 ft 328 kts 293°
2026-05-01 08:37 39.72024 2.64443 15681 ft 341 kts 293°
2026-05-01 08:37 39.72989 2.61598 16324 ft 347 kts 293°
2026-05-01 08:38 39.73967 2.58719 17045 ft 351 kts 293°
2026-05-01 08:38 39.74958 2.55805 17738 ft 354 kts 293°
2026-05-01 08:38 39.75958 2.52860 18444 ft 358 kts 293°
2026-05-01 08:38 39.76969 2.49881 19039 ft 362 kts 293°
2026-05-01 08:39 39.77988 2.46876 19655 ft 365 kts 293°
2026-05-01 08:39 39.79009 2.43844 20274 ft 368 kts 293°
2026-05-01 08:39 39.80038 2.40781 20906 ft 371 kts 293°
2026-05-01 08:39 39.81072 2.37696 21527 ft 374 kts 292°
2026-05-01 08:40 39.83165 2.31441 22751 ft 380 kts 292°
2026-05-01 08:40 39.84203 2.28264 23355 ft 383 kts 292°
2026-05-01 08:40 39.85238 2.25056 23918 ft 386 kts 292°
2026-05-01 08:41 39.86277 2.21822 24410 ft 389 kts 291°
2026-05-01 08:41 39.87325 2.18562 24882 ft 392 kts 291°
2026-05-01 08:41 39.88381 2.15274 25363 ft 394 kts 291°
2026-05-01 08:41 39.89443 2.11969 25828 ft 397 kts 291°
2026-05-01 08:42 39.90513 2.08640 26290 ft 400 kts 291°
2026-05-01 08:42 39.91590 2.05291 26741 ft 402 kts 291°
2026-05-01 08:42 39.92675 2.01925 27168 ft 405 kts 291°
2026-05-01 08:42 39.93770 1.98529 27587 ft 408 kts 291°
2026-05-01 08:43 39.94870 1.95109 28013 ft 411 kts 291°
2026-05-01 08:43 39.95975 1.91660 28439 ft 413 kts 291°
2026-05-01 08:43 39.97083 1.88189 28865 ft 416 kts 290°
2026-05-01 08:43 39.98200 1.84692 29271 ft 419 kts 291°
2026-05-01 08:44 39.99558 1.81312 29679 ft 425 kts 301°
2026-05-01 08:44 40.01401 1.78273 30089 ft 430 kts 312°
2026-05-01 08:44 40.03679 1.75707 30445 ft 436 kts 323°
2026-05-01 08:44 40.06332 1.73737 30780 ft 442 kts 334°
2026-05-01 08:45 40.09202 1.72259 31111 ft 445 kts 336°
2026-05-01 08:45 40.12094 1.70790 31438 ft 447 kts 336°
2026-05-01 08:45 40.14999 1.69302 31765 ft 449 kts 336°
2026-05-01 08:45 40.17905 1.67806 32202 ft 449 kts 336°
2026-05-01 08:46 40.20804 1.66313 32679 ft 447 kts 336°
2026-05-01 08:46 40.23694 1.64825 33153 ft 446 kts 336°
2026-05-01 08:46 40.26577 1.63336 33616 ft 445 kts 335°
2026-05-01 08:46 40.29456 1.61848 34065 ft 445 kts 335°
2026-05-01 08:47 40.32333 1.60361 34183 ft 442 kts 335°
2026-05-01 08:47 40.35149 1.58908 34207 ft 429 kts 335°
2026-05-01 08:47 40.40648 1.56073 34210 ft 422 kts 335°
2026-05-01 08:48 40.46102 1.53248 34207 ft 421 kts 335°
2026-05-01 08:48 40.51552 1.50405 34215 ft 421 kts 335°
2026-05-01 08:49 40.57005 1.47568 34217 ft 421 kts 335°
2026-05-01 08:49 40.62455 1.44728 34217 ft 421 kts 335°
2026-05-01 08:50 40.67896 1.41886 34217 ft 421 kts 335°
2026-05-01 08:50 40.73340 1.39044 34221 ft 420 kts 335°
2026-05-01 08:51 40.78774 1.36199 34224 ft 420 kts 335°
2026-05-01 08:51 40.84200 1.33349 34233 ft 419 kts 335°
2026-05-01 08:52 40.89619 1.30503 34228 ft 419 kts 335°
2026-05-01 08:52 40.95035 1.27656 34227 ft 418 kts 335°
2026-05-01 08:53 41.00435 1.24815 34217 ft 417 kts 335°
2026-05-01 08:53 41.05828 1.21959 34216 ft 417 kts 334°
2026-05-01 08:54 41.11214 1.19100 34217 ft 417 kts 335°
2026-05-01 08:54 41.16789 1.16946 34216 ft 422 kts 350°
2026-05-01 08:55 41.22657 1.16328 34216 ft 422 kts 352°
2026-05-01 08:55 41.28470 1.15717 34195 ft 416 kts 352°
2026-05-01 08:56 41.34252 1.15089 34192 ft 417 kts 353°
2026-05-01 08:56 41.40046 1.14485 34199 ft 418 kts 352°
2026-05-01 08:57 41.45904 1.13874 34203 ft 420 kts 353°
2026-05-01 08:57 41.51729 1.13266 34208 ft 420 kts 353°
2026-05-01 08:58 41.57527 1.12652 34215 ft 421 kts 353°
2026-05-01 08:58 41.63363 1.12035 34213 ft 421 kts 353°
2026-05-01 08:59 41.69241 1.11409 34217 ft 421 kts 353°
2026-05-01 08:59 41.75081 1.10784 34220 ft 421 kts 353°
2026-05-01 09:00 41.80969 1.10147 34233 ft 433 kts 353°
2026-05-01 09:00 41.84012 1.09821 34226 ft 444 kts 353°
2026-05-01 09:00 41.87130 1.09493 34222 ft 454 kts 353°
2026-05-01 09:01 41.93454 1.08825 34225 ft 461 kts 353°
2026-05-01 09:01 41.99866 1.08150 34221 ft 463 kts 353°
2026-05-01 09:02 42.06291 1.07460 34226 ft 462 kts 353°
2026-05-01 09:02 42.12720 1.06757 34230 ft 462 kts 353°
2026-05-01 09:03 42.19124 1.06074 34231 ft 461 kts 353°
2026-05-01 09:03 42.24493 1.05495 34228 ft 462 kts 353°
2026-05-01 09:04 42.30899 1.04802 34237 ft 462 kts 353°
2026-05-01 09:04 42.37306 1.04112 34244 ft 462 kts 353°
2026-05-01 09:05 42.43716 1.03410 34245 ft 462 kts 353°
2026-05-01 09:05 42.50093 1.02713 34249 ft 462 kts 353°
2026-05-01 09:06 42.56510 1.02028 34244 ft 463 kts 353°
2026-05-01 09:06 42.62970 1.01333 34240 ft 462 kts 353°
2026-05-01 09:07 42.69378 1.00626 34235 ft 462 kts 353°
2026-05-01 09:07 42.75787 0.99912 34231 ft 462 kts 353°
2026-05-01 09:08 42.82194 0.99205 34229 ft 462 kts 354°
2026-05-01 09:08 42.88602 0.98498 34224 ft 462 kts 354°
2026-05-01 09:09 42.95003 0.97794 34216 ft 462 kts 354°
2026-05-01 09:09 43.01413 0.97096 34217 ft 461 kts 354°
2026-05-01 09:10 43.07814 0.96382 34214 ft 461 kts 354°
2026-05-01 09:10 43.14218 0.95666 34202 ft 462 kts 354°
2026-05-01 09:11 43.20628 0.94957 34204 ft 462 kts 354°
2026-05-01 09:11 43.27028 0.94249 34201 ft 462 kts 354°
2026-05-01 09:12 43.33438 0.93529 34206 ft 462 kts 354°
2026-05-01 09:12 43.39853 0.92810 34212 ft 463 kts 354°
2026-05-01 09:13 43.46275 0.92093 34212 ft 463 kts 354°
2026-05-01 09:13 43.52681 0.91369 34217 ft 453 kts 354°
2026-05-01 09:14 43.55765 0.91021 34220 ft 437 kts 354°
2026-05-01 09:14 43.58756 0.90683 34223 ft 428 kts 354°
2026-05-01 09:14 43.64647 0.90019 34221 ft 423 kts 354°
2026-05-01 09:15 43.67587 0.89682 33966 ft 424 kts 354°
2026-05-01 09:15 43.70521 0.89348 33680 ft 422 kts 354°
2026-05-01 09:15 43.73439 0.89020 33187 ft 419 kts 353°
2026-05-01 09:15 43.76337 0.88701 32694 ft 417 kts 353°
2026-05-01 09:16 43.79219 0.88383 32202 ft 414 kts 353°
2026-05-01 09:16 43.82085 0.88063 31726 ft 411 kts 353°
2026-05-01 09:16 43.84926 0.87740 31246 ft 409 kts 353°
2026-05-01 09:17 43.90422 0.86193 30346 ft 399 kts 335°
2026-05-01 09:17 43.92946 0.84627 29863 ft 394 kts 332°
2026-05-01 09:17 43.97869 0.81450 29026 ft 387 kts 332°
2026-05-01 09:18 44.00306 0.79882 28623 ft 384 kts 332°
2026-05-01 09:18 44.05122 0.76768 27804 ft 379 kts 332°
2026-05-01 09:19 44.09869 0.73693 26978 ft 374 kts 332°
2026-05-01 09:19 44.12213 0.72177 26554 ft 372 kts 332°
2026-05-01 09:19 44.14560 0.70659 26128 ft 369 kts 332°
2026-05-01 09:20 44.19191 0.67650 25247 ft 365 kts 333°
2026-05-01 09:20 44.23783 0.64668 24342 ft 362 kts 333°
2026-05-01 09:21 44.28327 0.61708 23381 ft 359 kts 333°
2026-05-01 09:21 44.30551 0.60254 22933 ft 356 kts 333°
2026-05-01 09:21 44.34998 0.57343 22063 ft 350 kts 332°
2026-05-01 09:22 44.39410 0.54456 21212 ft 345 kts 332°
2026-05-01 09:22 44.43730 0.51615 20368 ft 341 kts 332°
2026-05-01 09:23 44.45876 0.50204 19949 ft 340 kts 332°
2026-05-01 09:23 44.50130 0.47416 19130 ft 337 kts 332°
2026-05-01 09:24 44.54366 0.44632 18268 ft 335 kts 332°
2026-05-01 09:24 44.56469 0.43242 17846 ft 333 kts 332°
2026-05-01 09:24 44.60633 0.40494 17055 ft 329 kts 332°
2026-05-01 09:25 44.64750 0.37775 16281 ft 325 kts 332°
2026-05-01 09:25 44.68826 0.35069 15531 ft 323 kts 332°
2026-05-01 09:26 44.70788 0.33571 15154 ft 320 kts 322°
2026-05-01 09:26 44.73607 0.28910 14416 ft 312 kts 294°
2026-05-01 09:26 44.74504 0.26136 14055 ft 311 kts 292°
2026-05-01 09:27 44.76273 0.20664 13297 ft 307 kts 292°
2026-05-01 09:27 44.77166 0.17905 12910 ft 305 kts 292°
2026-05-01 09:27 44.78028 0.15235 12548 ft 303 kts 292°
2026-05-01 09:28 44.78886 0.12547 12188 ft 300 kts 292°
2026-05-01 09:28 44.79741 0.09877 11810 ft 298 kts 292°
2026-05-01 09:28 44.80595 0.07223 11441 ft 297 kts 292°
2026-05-01 09:28 44.81444 0.04588 11064 ft 294 kts 292°
2026-05-01 09:29 44.83097 -0.00565 10320 ft 283 kts 291°
2026-05-01 09:29 44.83911 -0.03105 9936 ft 280 kts 291°
2026-05-01 09:30 44.85501 -0.08082 9174 ft 277 kts 291°
2026-05-01 09:30 44.86285 -0.10548 8758 ft 276 kts 292°
2026-05-01 09:30 44.87863 -0.15508 7835 ft 278 kts 292°
2026-05-01 09:31 44.88633 -0.18042 7409 ft 277 kts 287°
2026-05-01 09:31 44.89021 -0.20673 7004 ft 273 kts 272°
2026-05-01 09:31 44.89175 -0.25981 6168 ft 270 kts 271°
2026-05-01 09:32 44.89258 -0.28617 5823 ft 266 kts 271°
2026-05-01 09:32 44.89432 -0.33584 5513 ft 244 kts 274°
2026-05-01 09:32 44.89902 -0.35850 5373 ft 242 kts 295°
2026-05-01 09:33 44.90862 -0.37788 4923 ft 242 kts 314°
2026-05-01 09:33 44.92074 -0.39452 4381 ft 245 kts 315°
2026-05-01 09:33 44.94504 -0.42796 3828 ft 243 kts 315°
2026-05-01 09:34 44.95710 -0.44466 3633 ft 242 kts 316°
2026-05-01 09:34 44.96902 -0.46138 3434 ft 241 kts 312°
2026-05-01 09:34 44.97428 -0.50272 3175 ft 212 kts 242°
2026-05-01 09:35 44.96557 -0.51889 3078 ft 208 kts 221°
2026-05-01 09:35 44.94544 -0.54786 2995 ft 199 kts 222°
2026-05-01 09:35 44.93600 -0.56147 2876 ft 190 kts 221°
2026-05-01 09:36 44.92680 -0.57470 2625 ft 188 kts 222°
2026-05-01 09:36 44.91778 -0.58764 2382 ft 184 kts 221°
2026-05-01 09:36 44.90885 -0.60045 2131 ft 183 kts 221°
2026-05-01 09:36 44.89997 -0.61319 1884 ft 177 kts 221°
2026-05-01 09:37 44.89157 -0.62525 1655 ft 169 kts 221°
2026-05-01 09:37 44.87644 -0.64700 1235 ft 141 kts 220°
2026-05-01 09:37 44.86972 -0.65661 1064 ft 135 kts 219°
2026-05-01 09:38 44.85671 -0.67521 700 ft 132 kts 220°
2026-05-01 09:38 44.85023 -0.68449 530 ft 134 kts 220°
2026-05-01 09:38 44.84376 -0.69381 322 ft 133 kts 220°
2026-05-01 09:39 44.83123 -0.71160 168 ft 106 kts 226°
2026-05-01 09:39 44.82835 -0.71576 171 ft 74 kts 225°
2026-05-01 09:39 44.82603 -0.71908 172 ft 20 kts 225°
2026-05-01 09:40 44.82505 -0.71866 171 ft 17 kts 125°
2026-05-01 09:40 44.82503 -0.71604 171 ft 16 kts 45°
2026-05-01 09:40 44.82584 -0.71488 171 ft 18 kts 46°
2026-05-01 09:41 44.82685 -0.71345 171 ft 22 kts 45°
2026-05-01 09:41 44.82901 -0.71035 170 ft 19 kts 46°
2026-05-01 09:41 44.82931 -0.70892 170 ft 16 kts 107°
2026-05-01 09:42 44.82899 -0.70736 170 ft 17 kts 107°
2026-05-01 09:42 44.82865 -0.70575 170 ft 17 kts 106°
2026-05-01 09:42 44.82860 -0.70254 170 ft 18 kts 106°
2026-05-01 09:43 44.82807 -0.69998 170 ft 6 kts 100°
2026-05-01 09:43 44.82830 -0.69987 169 ft 4 kts 14°
2026-05-01 09:43 44.82860 -0.69975 169 ft 1 kts 17°
2026-05-01 09:44 44.82861 -0.69975 169 ft 0 kts 17°